FW7213 Weather Reports


Display with metric or nautical units.
time (UTC)temp
F
wind
direction
speed
MPH
gust
MPH
rain 1hr
in
rain 24hr
in
rain mn
in
humidity
%
barometer
mb
20260505102059 50 0 0.0 0.0 0.00 0.00 0.00 95 1015.0
20260505101603 50 0 0.0 0.0 0.00 0.00 0.00 95 1015.1
20260505101058 50 0 0.0 0.0 0.00 0.00 0.00 95 1015.0
20260505100603 50 0 0.0 0.0 0.00 0.00 0.00 95 1014.9
20260505100058 50 0 0.0 0.0 0.00 0.00 0.00 95 1014.8
20260505095557 51 0 0.0 0.0 0.00 0.00 0.00 94 1014.6
20260505095059 51 0 0.0 0.0 0.00 0.00 0.00 95 1014.7
20260505094557 51 0 0.0 0.0 0.00 0.00 0.00 95 1014.7
20260505094059 51 0 0.0 0.0 0.00 0.00 0.00 94 1014.7
20260505093558 51 0 0.0 0.0 0.00 0.00 0.00 94 1014.6
20260505093107 51 0 0.0 0.0 0.00 0.00 0.00 94 1014.7
20260505092558 51 0 0.0 0.0 0.00 0.00 0.00 94 1014.7
20260505092058 51 0 0.0 0.0 0.00 0.00 0.00 93 1014.7
20260505091600 51 0 0.0 0.0 0.00 0.00 0.00 93 1014.7
20260505091058 51 0 0.0 0.0 0.00 0.00 0.00 93 1014.8
20260505090558 51 0 0.0 0.0 0.00 0.00 0.00 93 1014.8
20260505090056 51 0 0.0 0.0 0.00 0.00 0.00 93 1014.7
20260505085558 51 0 0.0 0.0 0.00 0.00 0.00 92 1014.7
20260505085058 52 0 0.0 0.0 0.00 0.00 0.00 92 1014.7
20260505084558 52 0 0.0 0.0 0.00 0.00 0.00 92 1014.5
20260505084059 52 0 0.0 0.0 0.00 0.00 0.00 92 1014.3
20260505083557 52 0 0.0 0.0 0.00 0.00 0.00 92 1014.2
20260505083058 52 0 0.0 0.0 0.00 0.00 0.00 92 1014.4
20260505082602 52 0 0.0 0.0 0.00 0.00 0.00 92 1014.1
20260505082059 53 0 0.0 0.0 0.00 0.00 0.00 92 1014.1
20260505081613 53 0 0.0 0.0 0.00 0.00 0.00 92 1014.1
20260505081056 53 0 0.0 0.0 0.00 0.00 0.00 92 1014.1
20260505080558 53 0 0.0 0.0 0.00 0.00 0.00 91 1014.0
20260505080107 53 0 0.0 0.0 0.00 0.00 0.00 91 1013.9
20260505075558 53 0 0.0 0.0 0.00 0.00 0.00 91 1014.2
20260505075058 53 0 0.0 0.0 0.00 0.00 0.00 91 1014.2
20260505074559 53 0 0.0 0.0 0.00 0.00 0.00 90 1014.2
20260505074058 54 0 0.0 0.0 0.00 0.00 0.00 90 1014.2
20260505073558 54 0 0.0 0.0 0.00 0.00 0.00 90 1014.4
20260505073058 54 0 0.0 0.0 0.00 0.00 0.00 89 1014.5
20260505072559 54 0 0.0 0.0 0.00 0.00 0.00 89 1014.3
20260505072056 54 0 0.0 0.0 0.00 0.00 0.00 88 1014.4
20260505071610 54 0 0.0 0.0 0.00 0.00 0.00 88 1014.6
20260505071058 54 0 0.0 0.0 0.00 0.00 0.00 87 1014.8
20260505070559 55 0 0.0 0.0 0.00 0.00 0.00 87 1014.8
20260505070110 55 0 0.0 0.0 0.00 0.00 0.00 87 1014.9
20260505065556 55 0 0.0 0.0 0.00 0.00 0.00 86 1015.0
20260505065056 55 0 0.0 0.0 0.00 0.00 0.00 85 1015.0
20260505064559 56 0 0.0 0.0 0.00 0.00 0.00 84 1015.0
20260505064103 56 0 0.0 0.0 0.00 0.00 0.00 82 1014.9
20260505063558 56 0 0.0 0.0 0.00 0.00 0.00 82 1015.0
20260505063056 56 0 0.0 0.0 0.00 0.00 0.00 82 1015.1
20260505062559 56 0 0.0 0.0 0.00 0.00 0.00 82 1015.2
20260505062101 56 0 0.0 0.0 0.00 0.00 0.00 82 1015.2
20260505061601 56 0 0.0 0.0 0.00 0.00 0.00 84 1015.2
20260505061058 57 0 0.0 0.0 0.00 0.00 0.00 83 1015.4
20260505060557 57 0 0.0 1.0 0.00 0.00 0.00 82 1015.5
20260505060059 57 0 0.0 1.0 0.00 0.00 0.00 77 1015.7
20260505055557 57 0 0.0 1.0 0.00 0.00 0.00 78 1015.7
20260505055057 57 0 0.0 1.0 0.00 0.00 0.00 81 1015.7
20260505054559 58 0 0.0 1.0 0.00 0.00 0.00 77 1015.9
20260505054101 58 0 0.0 1.0 0.00 0.00 0.00 76 1015.7
20260505053555 58 0 0.0 1.0 0.00 0.00 0.00 77 1015.6
20260505053105 58 0 0.0 1.0 0.00 0.00 0.00 76 1015.5
20260505052556 58 0 0.0 1.0 0.00 0.00 0.00 80 1015.4
20260505052101 58 141 0.0 1.0 0.00 0.00 0.00 76 1015.5
20260505051557 58 0 0.0 2.0 0.00 0.00 0.00 76 1015.5
20260505051053 58 0 0.0 2.0 0.00 0.00 0.00 76 1015.6
20260505050556 58 148 0.0 1.0 0.00 0.00 0.00 79 1015.7
20260505041557 61 148 0.0 1.0 0.00 0.00 0.00 74 1015.9
20260505041056 61 146 0.0 1.0 0.00 0.00 0.00 71 1015.9
20260505040559 61 0 0.0 1.0 0.00 0.00 0.00 70 1016.0
20260505040105 61 138 0.0 1.0 0.00 0.00 0.00 70 1016.0
20260505035555 61 137 0.0 1.0 0.00 0.00 0.00 70 1016.0
20260505035055 61 142 0.0 2.0 0.00 0.00 0.00 69 1015.9
20260505034557 62 0 0.0 2.0 0.00 0.00 0.00 68 1015.9
20260505034054 62 143 1.0 2.0 0.00 0.00 0.00 68 1016.0
20260505033555 62 144 0.0 2.0 0.00 0.00 0.00 67 1015.9
20260505033100 62 143 0.0 2.0 0.00 0.00 0.00 67 1015.9
20260505032555 62 155 1.0 2.0 0.00 0.00 0.00 67 1015.9
20260505032054 63 139 0.0 2.0 0.00 0.00 0.00 66 1016.0
20260505031559 63 0 1.0 2.0 0.00 0.00 0.00 66 1016.0
20260505031055 63 143 0.0 1.0 0.00 0.00 0.00 66 1016.1
20260505030607 63 142 0.0 2.0 0.00 0.00 0.00 65 1015.9
20260505025559 63 155 1.0 2.0 0.00 0.00 0.00 65 1016.0
20260505025058 63 0 0.0 3.0 0.00 0.00 0.00 65 1016.0
20260505024558 64 137 0.0 3.0 0.00 0.00 0.00 64 1015.9
20260505024055 64 148 0.0 2.0 0.00 0.00 0.00 64 1015.8
20260505023558 64 147 0.0 2.0 0.00 0.00 0.00 64 1015.9
20260505023102 64 0 0.0 1.0 0.00 0.00 0.00 63 1015.8
20260505022555 64 0 0.0 2.0 0.00 0.00 0.00 63 1016.0
20260505022059 65 145 1.0 3.0 0.00 0.00 0.00 62 1015.7
20260505021602 65 160 1.0 3.0 0.00 0.00 0.00 62 1015.7
20260505021058 65 0 1.0 3.0 0.00 0.00 0.00 64 1015.7
20260505020558 66 173 2.0 3.0 0.00 0.00 0.00 61 1015.7
20260505020059 66 124 1.0 3.0 0.00 0.00 0.00 60 1015.7
20260505015559 66 172 1.0 2.0 0.00 0.00 0.00 60 1015.8
20260505015102 66 161 1.0 5.0 0.00 0.00 0.00 59 1015.7
20260505014600 67 152 0.0 5.0 0.00 0.00 0.00 59 1015.7
20260505014058 67 147 1.0 4.0 0.00 0.00 0.00 58 1015.6
20260505013557 67 155 1.0 4.0 0.00 0.00 0.00 60 1015.7
20260505013101 68 140 1.0 4.0 0.00 0.00 0.00 57 1015.7
20260505012600 68 166 1.0 10.0 0.00 0.00 0.00 56 1015.5
20260505012100 68 166 2.0 10.0 0.00 0.00 0.00 56 1015.6
20260505011559 69 181 2.0 10.0 0.00 0.00 0.00 55 1015.4
20260505011059 69 136 2.0 7.0 0.00 0.00 0.00 55 1015.5
20260505010559 69 140 1.0 7.0 0.00 0.00 0.00 54 1015.5
20260505010104 70 190 2.0 7.0 0.00 0.00 0.00 54 1015.4
20260505005558 70 217 2.0 7.0 0.00 0.00 0.00 56 1015.3
20260505005059 70 155 2.0 7.0 0.00 0.00 0.00 52 1015.3
20260505004559 71 210 1.0 6.0 0.00 0.00 0.00 51 1015.2
20260505004058 71 137 2.0 6.0 0.00 0.00 0.00 51 1015.3
20260505003602 71 173 2.0 6.0 0.00 0.00 0.00 50 1015.2
20260505003104 72 182 1.0 6.0 0.00 0.00 0.00 49 1015.0
20260505002558 72 265 2.0 9.0 0.00 0.00 0.00 49 1015.1
20260505002058 72 166 1.0 9.0 0.00 0.00 0.00 49 1014.9
20260505001559 72 166 1.0 5.0 0.00 0.00 0.00 53 1014.9
20260505001058 72 162 1.0 2.0 0.00 0.00 0.00 56 1014.7
20260505000558 74 155 0.0 1.0 0.00 0.00 0.00 52 1014.6
20260505000112 75 0 0.0 3.0 0.00 0.00 0.00 52 1014.5
20260504235558 76 0 0.0 3.0 0.00 0.00 0.00 46 1014.5
20260504235058 76 218 0.0 1.0 0.00 0.00 0.00 46 1014.5
20260504234556 77 0 0.0 1.0 0.00 0.00 0.00 40 1014.5
20260504234057 77 0 0.0 3.0 0.00 0.00 0.00 42 1014.4
20260504233558 77 231 0.0 3.0 0.00 0.00 0.00 41 1014.7
20260504233102 78 219 1.0 3.0 0.00 0.00 0.00 38 1014.6
20260504232558 78 203 1.0 3.0 0.00 0.00 0.00 38 1014.6
20260504232055 78 282 1.0 4.0 0.00 0.00 0.00 40 1014.6
20260504231558 79 260 1.0 4.0 0.00 0.00 0.00 36 1014.7
20260504231058 79 295 0.0 2.0 0.00 0.00 0.00 40 1014.7
20260504230558 80 246 1.0 3.0 0.00 0.00 0.00 35 1014.6
20260504230057 80 248 0.0 4.0 0.00 0.00 0.00 35 1014.7
20260504225602 80 236 1.0 4.0 0.00 0.00 0.00 38 1014.6
20260504225100 81 243 1.0 4.0 0.00 0.00 0.00 39 1014.6
20260504224600 81 355 0.0 5.0 0.00 0.00 0.00 38 1014.6
20260504224058 81 151 0.0 5.0 0.00 0.00 0.00 35 1014.5
20260504223558 81 146 2.0 5.0 0.00 0.00 0.00 35 1014.6
20260504223058 82 127 1.0 3.0 0.00 0.00 0.00 38 1014.6
20260504222559 81 235 0.0 3.0 0.00 0.00 0.00 38 1014.7
20260504222057 81 0 0.0 4.0 0.00 0.00 0.00 36 1014.7
20260504221557 81 159 1.0 4.0 0.00 0.00 0.00 34 1014.6
20260504221059 81 198 1.0 4.0 0.00 0.00 0.00 36 1014.5
20260504220555 80 301 1.0 5.0 0.00 0.00 0.00 37 1014.6
20260504220115 80 0 1.0 5.0 0.00 0.00 0.00 34 1014.7
20260504215558 80 166 2.0 6.0 0.00 0.00 0.00 38 1014.7
20260504215101 80 151 2.0 6.0 0.00 0.00 0.00 34 1014.7
20260504214600 81 136 2.0 6.0 0.00 0.00 0.00 34 1014.7
20260504214058 81 134 2.0 5.0 0.00 0.00 0.00 34 1014.7
20260504213558 81 158 2.0 4.0 0.00 0.00 0.00 33 1014.7
20260504213102 81 165 2.0 4.0 0.00 0.00 0.00 37 1014.7
20260504212558 81 135 1.0 4.0 0.00 0.00 0.00 37 1014.6
20260504212058 81 0 1.0 5.0 0.00 0.00 0.00 36 1014.7
20260504211557 81 131 1.0 5.0 0.00 0.00 0.00 37 1014.8
20260504211059 81 184 1.0 5.0 0.00 0.00 0.00 38 1014.7
20260504210558 81 236 1.0 6.0 0.00 0.00 0.00 40 1014.6
20260504210056 81 252 2.0 6.0 0.00 0.00 0.00 35 1014.7
20260504205559 81 120 2.0 6.0 0.00 0.00 0.00 39 1014.7
20260504205059 81 113 1.0 6.0 0.00 0.00 0.00 38 1014.9
20260504204559 80 46 1.0 4.0 0.00 0.00 0.00 38 1014.9
20260504204058 81 115 1.0 4.0 0.00 0.00 0.00 37 1014.9
20260504203558 81 200 2.0 6.0 0.00 0.00 0.00 38 1015.1
20260504203057 81 0 1.0 6.0 0.00 0.00 0.00 40 1014.9
20260504202558 81 139 2.0 4.0 0.00 0.00 0.00 35 1015.1
20260504202058 81 179 1.0 4.0 0.00 0.00 0.00 36 1015.1
20260504201559 80 233 2.0 7.0 0.00 0.00 0.00 35 1015.2
20260504201058 80 115 2.0 8.0 0.00 0.00 0.00 38 1015.3
20260504200558 79 102 1.0 8.0 0.00 0.00 0.00 39 1015.3
20260504200101 79 110 1.0 8.0 0.00 0.00 0.00 38 1015.5
20260504195557 79 113 3.0 7.0 0.00 0.00 0.00 37 1015.6
20260504195059 79 150 3.0 7.0 0.00 0.00 0.00 37 1015.8
20260504194603 79 143 3.0 6.0 0.00 0.00 0.00 41 1015.9
20260504194059 79 150 3.0 6.0 0.00 0.00 0.00 39 1015.9
20260504193559 79 46 2.0 8.0 0.00 0.00 0.00 42 1016.0
20260504193059 80 106 2.0 8.0 0.00 0.00 0.00 40 1016.2
20260504192558 80 175 1.0 5.0 0.00 0.00 0.00 38 1016.1
20260504192058 80 139 1.0 5.0 0.00 0.00 0.00 39 1016.3
20260504191605 80 210 0.0 5.0 0.00 0.00 0.00 39 1016.4
20260504191058 80 261 2.0 5.0 0.00 0.00 0.00 41 1016.4
20260504190559 80 0 1.0 4.0 0.00 0.00 0.00 38 1016.5
20260504190110 79 236 0.0 5.0 0.00 0.00 0.00 37 1016.5
20260504185557 79 322 2.0 6.0 0.00 0.00 0.00 40 1016.7
20260504185058 79 139 1.0 6.0 0.00 0.00 0.00 40 1016.7
20260504184617 78 153 2.0 6.0 0.00 0.00 0.00 39 1016.7
20260504184058 78 168 1.0 7.0 0.00 0.00 0.00 41 1016.9
20260504183559 77 231 3.0 7.0 0.00 0.00 0.00 37 1017.0
20260504183111 78 154 1.0 6.0 0.00 0.00 0.00 41 1016.7
20260504182558 78 110 3.0 5.0 0.00 0.00 0.00 39 1017.1
20260504182058 77 80 1.0 8.0 0.00 0.00 0.00 44 1017.2
20260504181604 77 259 3.0 8.0 0.00 0.00 0.00 42 1017.2
20260504181059 78 178 2.0 5.0 0.00 0.00 0.00 42 1017.1
20260504180558 77 0 1.0 3.0 0.00 0.00 0.00 40 1017.1
20260504180111 77 148 0.0 7.0 0.00 0.00 0.00 43 1017.3
20260504175558 76 211 1.0 7.0 0.00 0.00 0.00 47 1017.3
20260504175058 76 150 1.0 5.0 0.00 0.00 0.00 45 1017.3
20260504174610 76 138 1.0 5.0 0.00 0.00 0.00 45 1017.3
20260504174058 76 150 2.0 8.0 0.00 0.00 0.00 44 1017.5
20260504173558 75 147 3.0 8.0 0.00 0.00 0.00 46 1017.5
20260504173104 75 137 2.0 6.0 0.00 0.00 0.00 42 1017.5
20260504172558 75 65 2.0 6.0 0.00 0.00 0.00 46 1017.7
20260504172058 76 178 2.0 6.0 0.00 0.00 0.00 43 1017.6
20260504171557 75 144 2.0 5.0 0.00 0.00 0.00 47 1017.6
20260504171101 75 173 3.0 5.0 0.00 0.00 0.00 46 1017.7
20260504170559 75 241 2.0 4.0 0.00 0.00 0.00 48 1017.7
20260504170105 75 154 0.0 6.0 0.00 0.00 0.00 43 1017.9
20260504151058 70 0 0.0 3.0 0.00 0.00 0.00 56 1018.6
20260504150601 69 147 1.0 5.0 0.00 0.00 0.00 55 1018.7
20260504150103 69 249 2.0 5.0 0.00 0.00 0.00 56 1018.7
20260504141058 65 146 0.0 2.0 0.00 0.00 0.00 71 1019.0
20260504140558 64 143 0.0 3.0 0.00 0.00 0.00 72 1019.1
20260504130558 61 145 0.0 1.0 0.00 0.00 0.00 74 1018.6
20260504120104 49 0 0.0 0.0 0.00 0.00 0.00 95 1018.3
20260504110559 46 0 0.0 0.0 0.00 0.00 0.00 94 1018.2